Time,TemperatureF,DewpointF,PressureIn,WindDirection,WindDirectionDegrees,WindSpeedMPH,WindSpeedGustMPH,Humidity,HourlyPrecipIn,Conditions,Clouds,dailyrainin,SoftwareType,DateUTC
2013-03-09 00:11:00,29.0,25.0,30.60,SE,135,0.2,1.8,85,0.00,,,0.00,WUHU216HW,2013-03-09 05:11:00,
2013-03-09 00:26:00,28.6,24.7,30.59,ESE,113,0.7,1.8,85,0.00,,,0.00,WUHU216HW,2013-03-09 05:26:00,
2013-03-09 00:41:00,28.4,24.5,30.59,ESE,113,0.4,1.6,85,0.00,,,0.00,WUHU216HW,2013-03-09 05:41:00,
2013-03-09 00:56:00,28.1,23.9,30.58,ESE,113,0.4,1.1,84,0.00,,,0.00,WUHU216HW,2013-03-09 05:56:00,
2013-03-09 01:11:00,28.1,23.9,30.59,ESE,113,0.4,1.3,84,0.00,,,0.00,WUHU216HW,2013-03-09 06:11:00,
2013-03-09 01:26:00,28.1,24.1,30.57,ESE,113,1.1,1.8,85,0.00,,,0.00,WUHU216HW,2013-03-09 06:26:00,
2013-03-09 01:41:00,27.7,23.8,30.57,SSE,158,0.0,1.8,85,0.00,,,0.00,WUHU216HW,2013-03-09 06:41:00,
2013-03-09 01:56:00,27.5,23.6,30.57,ESE,113,0.2,1.3,85,0.00,,,0.00,WUHU216HW,2013-03-09 06:56:00,
2013-03-09 02:11:00,27.4,23.4,30.56,ESE,113,0.4,1.1,85,0.00,,,0.00,WUHU216HW,2013-03-09 07:11:00,
2013-03-09 02:26:00,27.2,23.2,30.56,SE,135,0.4,2.2,85,0.00,,,0.00,WUHU216HW,2013-03-09 07:26:00,
2013-03-09 02:41:00,27.2,23.2,30.56,East,90,0.9,1.1,85,0.00,,,0.00,WUHU216HW,2013-03-09 07:41:00,
2013-03-09 02:57:00,27.0,23.3,30.56,ESE,113,0.4,1.6,86,0.00,,,0.00,WUHU216HW,2013-03-09 07:57:00,
2013-03-09 03:12:00,27.0,23.3,30.55,ESE,113,0.4,1.6,86,0.00,,,0.00,WUHU216HW,2013-03-09 08:12:00,
2013-03-09 03:27:00,27.0,23.3,30.54,East,90,1.3,2.0,86,0.00,,,0.00,WUHU216HW,2013-03-09 08:27:00,
2013-03-09 03:42:00,26.8,23.1,30.54,SE,135,0.4,0.9,86,0.00,,,0.00,WUHU216HW,2013-03-09 08:42:00,
2013-03-09 03:57:00,26.6,23.0,30.54,East,90,0.7,0.7,86,0.00,,,0.00,WUHU216HW,2013-03-09 08:57:00,
2013-03-09 04:12:00,26.6,23.0,30.54,SE,135,1.8,1.8,86,0.00,,,0.00,WUHU216HW,2013-03-09 09:12:00,
2013-03-09 04:27:00,26.3,22.6,30.54,SE,135,0.9,1.8,86,0.00,,,0.00,WUHU216HW,2013-03-09 09:27:00,
2013-03-09 04:42:00,26.3,22.6,30.54,ESE,113,0.2,1.3,86,0.00,,,0.00,WUHU216HW,2013-03-09 09:42:00,
2013-03-09 04:57:00,26.3,22.6,30.54,ENE,68,0.4,1.1,86,0.00,,,0.00,WUHU216HW,2013-03-09 09:57:00,
2013-03-09 05:12:00,26.1,22.4,30.54,SSE,158,1.1,1.1,86,0.00,,,0.00,WUHU216HW,2013-03-09 10:12:00,
2013-03-09 05:27:00,25.9,22.6,30.55,East,90,1.3,1.3,87,0.00,,,0.00,WUHU216HW,2013-03-09 10:27:00,
2013-03-09 05:42:00,26.1,22.8,30.55,ESE,113,0.9,1.8,87,0.00,,,0.00,WUHU216HW,2013-03-09 10:42:00,
2013-03-09 05:57:00,25.7,22.4,30.55,ESE,113,0.4,1.3,87,0.00,,,0.00,WUHU216HW,2013-03-09 10:57:00,
2013-03-09 06:12:00,25.4,22.1,30.55,East,90,1.6,1.6,87,0.00,,,0.00,WUHU216HW,2013-03-09 11:12:00,
2013-03-09 06:27:00,25.2,21.9,30.55,SE,135,0.2,1.1,87,0.00,,,0.00,WUHU216HW,2013-03-09 11:27:00,
2013-03-09 06:42:00,25.0,21.7,30.54,ESE,113,0.2,0.4,87,0.00,,,0.00,WUHU216HW,2013-03-09 11:42:00,
2013-03-09 06:57:00,24.8,21.5,30.55,ESE,113,0.4,0.9,87,0.00,,,0.00,WUHU216HW,2013-03-09 11:57:00,
2013-03-09 07:12:00,25.2,21.9,30.56,East,90,1.1,1.1,87,0.00,,,0.00,WUHU216HW,2013-03-09 12:12:00,
2013-03-09 07:28:00,25.6,22.5,30.56,ESE,113,0.4,1.1,88,0.00,,,0.00,WUHU216HW,2013-03-09 12:28:00,
2013-03-09 07:43:00,26.5,23.4,30.56,SE,135,0.7,2.0,88,0.00,,,0.00,WUHU216HW,2013-03-09 12:43:00,
2013-03-09 07:58:00,27.4,24.3,30.56,East,90,2.5,3.4,88,0.00,,,0.00,WUHU216HW,2013-03-09 12:58:00,
2013-03-09 08:13:00,28.3,24.8,30.55,East,90,1.8,3.4,87,0.00,,,0.00,WUHU216HW,2013-03-09 13:13:00,
2013-03-09 08:28:00,29.9,26.5,30.55,SSE,158,0.9,3.1,87,0.00,,,0.00,WUHU216HW,2013-03-09 13:28:00,
2013-03-09 08:43:00,31.1,27.2,30.55,SE,135,2.7,2.7,85,0.00,,,0.00,WUHU216HW,2013-03-09 13:43:00,
2013-03-09 08:58:00,32.9,28.6,30.55,ESE,113,1.6,3.1,84,0.00,,,0.00,WUHU216HW,2013-03-09 13:58:00,
2013-03-09 09:13:00,34.6,29.5,30.54,South,180,0.4,3.1,82,0.00,,,0.00,WUHU216HW,2013-03-09 14:13:00,
2013-03-09 09:28:00,35.8,30.5,30.53,East,90,1.1,1.8,81,0.00,,,0.00,WUHU216HW,2013-03-09 14:28:00,
2013-03-09 09:43:00,37.3,31.7,30.53,South,180,0.4,2.0,80,0.00,,,0.00,WUHU216HW,2013-03-09 14:43:00,
2013-03-09 09:58:00,38.5,32.0,30.53,NNW,338,2.5,2.7,77,0.00,,,0.00,WUHU216HW,2013-03-09 14:58:00,
2013-03-09 10:13:00,40.0,31.6,30.54,SE,135,3.4,4.0,72,0.00,,,0.00,WUHU216HW,2013-03-09 15:13:00,
2013-03-09 10:28:00,40.5,31.5,30.52,SSW,203,2.0,4.0,70,0.00,,,0.00,WUHU216HW,2013-03-09 15:28:00,
2013-03-09 10:43:00,41.2,31.5,30.51,East,90,3.4,3.6,68,0.00,,,0.00,WUHU216HW,2013-03-09 15:43:00,
2013-03-09 10:58:00,41.9,31.8,30.51,SE,135,1.8,4.0,67,0.00,,,0.00,WUHU216HW,2013-03-09 15:58:00,
2013-03-09 11:13:00,43.7,32.3,30.51,SSE,158,0.4,3.8,64,0.00,,,0.00,WUHU216HW,2013-03-09 16:13:00,
2013-03-09 11:28:00,44.1,32.3,30.50,ESE,113,2.0,4.9,63,0.00,,,0.00,WUHU216HW,2013-03-09 16:28:00,
2013-03-09 11:43:00,45.2,32.1,30.50,SSE,158,3.1,5.6,60,0.00,,,0.00,WUHU216HW,2013-03-09 16:43:00,
2013-03-09 11:58:00,46.3,32.2,30.50,SSE,158,2.5,4.0,58,0.00,,,0.00,WUHU216HW,2013-03-09 16:58:00,
2013-03-09 12:14:00,47.5,32.6,30.50,SE,135,2.5,6.3,56,0.00,,,0.00,WUHU216HW,2013-03-09 17:14:00,
2013-03-09 12:29:00,47.5,31.6,30.49,NNE,23,2.2,4.7,54,0.00,,,0.00,WUHU216HW,2013-03-09 17:29:00,
2013-03-09 12:44:00,47.9,31.1,30.48,ENE,68,4.5,6.3,52,0.00,,,0.00,WUHU216HW,2013-03-09 17:44:00,
2013-03-09 12:59:00,48.2,32.3,30.47,NE,45,1.1,4.7,54,0.00,,,0.00,WUHU216HW,2013-03-09 17:59:00,
2013-03-09 13:14:00,48.8,31.9,30.46,South,180,1.3,3.8,52,0.00,,,0.00,WUHU216HW,2013-03-09 18:14:00,
2013-03-09 13:29:00,49.1,32.7,30.45,ENE,68,1.1,5.8,53,0.00,,,0.00,WUHU216HW,2013-03-09 18:29:00,
2013-03-09 13:44:00,50.8,33.3,30.44,ESE,113,3.6,3.6,51,0.00,,,0.00,WUHU216HW,2013-03-09 18:44:00,
2013-03-09 13:59:00,51.1,32.7,30.43,SSW,203,0.4,3.4,49,0.00,,,0.00,WUHU216HW,2013-03-09 18:59:00,
2013-03-09 14:14:00,52.4,32.7,30.42,East,90,3.1,6.0,47,0.00,,,0.00,WUHU216HW,2013-03-09 19:14:00,
2013-03-09 14:29:00,53.5,33.0,30.41,SSW,203,1.1,4.5,46,0.00,,,0.00,WUHU216HW,2013-03-09 19:29:00,
2013-03-09 14:44:00,53.6,32.7,30.41,NW,315,0.7,4.0,45,0.00,,,0.00,WUHU216HW,2013-03-09 19:44:00,
2013-03-09 14:59:00,54.4,33.3,30.40,SE,135,4.5,4.5,45,0.00,,,0.00,WUHU216HW,2013-03-09 19:59:00,
2013-03-09 15:14:00,54.5,33.5,30.39,SE,135,2.7,3.8,45,0.00,,,0.00,WUHU216HW,2013-03-09 20:14:00,
2013-03-09 15:29:00,54.5,33.0,30.38,West,270,1.1,3.4,44,0.00,,,0.00,WUHU216HW,2013-03-09 20:29:00,
2013-03-09 15:44:00,52.6,33.9,30.37,NW,315,0.9,4.3,49,0.00,,,0.00,WUHU216HW,2013-03-09 20:44:00,
2013-03-09 15:59:00,52.6,34.9,30.37,NNW,338,1.3,3.1,51,0.00,,,0.00,WUHU216HW,2013-03-09 20:59:00,
2013-03-09 16:14:00,51.8,34.7,30.36,WNW,293,2.0,3.8,52,0.00,,,0.00,WUHU216HW,2013-03-09 21:14:00,
2013-03-09 16:29:00,50.8,34.7,30.35,WSW,248,0.7,2.5,54,0.00,,,0.00,WUHU216HW,2013-03-09 21:29:00,
2013-03-09 16:45:00,51.5,35.7,30.35,NW,315,0.4,1.6,55,0.00,,,0.00,WUHU216HW,2013-03-09 21:45:00,
2013-03-09 17:00:00,51.5,35.3,30.35,NNW,338,4.5,5.6,54,0.00,,,0.00,WUHU216HW,2013-03-09 22:00:00,
2013-03-09 17:15:00,52.0,33.5,30.34,SSE,158,2.5,3.8,49,0.00,,,0.00,WUHU216HW,2013-03-09 22:15:00,
2013-03-09 17:30:00,53.1,33.3,30.33,ESE,113,1.1,3.8,47,0.00,,,0.00,WUHU216HW,2013-03-09 22:30:00,
2013-03-09 17:45:00,52.9,33.1,30.33,SSE,158,1.6,2.5,47,0.00,,,0.00,WUHU216HW,2013-03-09 22:45:00,
2013-03-09 18:00:00,52.6,33.9,30.33,ESE,113,1.1,2.7,49,0.00,,,0.00,WUHU216HW,2013-03-09 23:00:00,
2013-03-09 18:15:00,52.2,33.6,30.33,East,90,2.2,2.5,49,0.00,,,0.00,WUHU216HW,2013-03-09 23:15:00,
2013-03-09 18:30:00,52.0,33.5,30.32,SSE,158,0.9,2.7,49,0.00,,,0.00,WUHU216HW,2013-03-09 23:30:00,
2013-03-09 18:45:00,51.5,33.5,30.33,ESE,113,1.3,2.5,50,0.00,,,0.00,WUHU216HW,2013-03-09 23:45:00,
2013-03-09 19:00:00,50.8,33.3,30.33,SE,135,0.4,1.3,51,0.00,,,0.00,WUHU216HW,2013-03-10 00:00:00,
2013-03-09 19:16:00,50.0,33.1,30.32,ESE,113,1.3,1.8,52,0.00,,,0.00,WUHU216HW,2013-03-10 00:16:00,
2013-03-09 19:31:00,49.7,32.8,30.32,ESE,113,3.4,3.4,52,0.00,,,0.00,WUHU216HW,2013-03-10 00:31:00,
2013-03-09 19:46:00,49.7,32.8,30.31,ESE,113,1.3,2.7,52,0.00,,,0.00,WUHU216HW,2013-03-10 00:46:00,
2013-03-09 20:01:00,49.3,32.9,30.31,SSE,158,0.9,3.1,53,0.00,,,0.00,WUHU216HW,2013-03-10 01:01:00,
2013-03-09 20:16:00,49.3,32.9,30.29,ENE,68,1.1,3.4,53,0.00,,,0.00,WUHU216HW,2013-03-10 01:16:00,
2013-03-09 20:31:00,49.1,32.2,30.28,ESE,113,1.3,3.8,52,0.00,,,0.00,WUHU216HW,2013-03-10 01:31:00,
2013-03-09 20:46:00,49.3,32.4,30.28,SSE,158,2.5,2.5,52,0.00,,,0.00,WUHU216HW,2013-03-10 01:46:00,
2013-03-09 21:01:00,49.0,31.6,30.28,SSW,203,3.4,3.4,51,0.00,,,0.00,WUHU216HW,2013-03-10 02:01:00,
2013-03-09 21:16:00,49.0,31.6,30.29,SSE,158,2.7,3.8,51,0.00,,,0.00,WUHU216HW,2013-03-10 02:16:00,
2013-03-09 21:31:00,49.0,32.5,30.29,SE,135,1.8,3.6,53,0.00,,,0.00,WUHU216HW,2013-03-10 02:31:00,
2013-03-09 21:46:00,48.6,31.7,30.29,SSE,158,1.6,3.8,52,0.00,,,0.00,WUHU216HW,2013-03-10 02:46:00,
2013-03-09 22:01:00,48.6,31.7,30.29,SSE,158,2.5,4.0,52,0.00,,,0.00,WUHU216HW,2013-03-10 03:01:00,
2013-03-09 22:16:00,48.6,31.7,30.29,SE,135,2.5,4.0,52,0.00,,,0.00,WUHU216HW,2013-03-10 03:16:00,
2013-03-09 22:32:00,48.2,31.3,30.29,East,90,2.5,3.8,52,0.00,,,0.00,WUHU216HW,2013-03-10 03:32:00,
2013-03-09 22:47:00,48.1,31.2,30.28,ENE,68,4.7,4.7,52,0.00,,,0.00,WUHU216HW,2013-03-10 03:47:00,
2013-03-09 23:02:00,48.2,30.9,30.28,SSW,203,3.4,4.9,51,0.00,,,0.00,WUHU216HW,2013-03-10 04:02:00,
2013-03-09 23:17:00,48.4,31.1,30.28,ESE,113,3.1,4.7,51,0.00,,,0.00,WUHU216HW,2013-03-10 04:17:00,
2013-03-09 23:32:00,48.6,31.2,30.28,SSE,158,2.5,4.7,51,0.00,,,0.00,WUHU216HW,2013-03-10 04:32:00,
2013-03-09 23:47:00,48.8,31.4,30.28,SSE,158,3.4,5.4,51,0.00,,,0.00,WUHU216HW,2013-03-10 04:47:00,